Location: Leeds
(37.2390°N, 113.3580°W)
Time: 17:35:46
(UTC-06:00)

SL-08 RB Rocket - Visible Passes

Search period start: 18 April 2015 00:00
Search period end: 28 April 2015 00:00
Orbit: 650 x 686 km, 98.1° (Epoch: 18 April)

Date Brightness Start Highest point End Pass type
(mag) Time Alt. Az. Time Alt. Az. Time Alt. Az.
18 Apr 5.9 21:49:21 11° NE 21:49:21 11° NE 21:50:15 10° NE visible
18 Apr 5.5 23:27:30 29° NNW 23:27:30 29° NNW 23:29:48 10° NNW visible
19 Apr 5.4 22:21:42 22° NE 22:21:42 22° NE 22:24:11 10° NNE visible
19 Apr 6.2 23:59:51 18° NW 23:59:51 18° NW 00:01:24 10° NW visible
20 Apr 4.9 22:54:03 34° NNE 22:54:03 34° NNE 22:56:52 10° N visible
21 Apr 5.9 21:48:15 11° ENE 21:48:15 11° ENE 21:49:24 10° NE visible
21 Apr 5.3 23:26:25 33° NNW 23:26:25 33° NNW 23:29:00 10° NNW visible
22 Apr 5.3 22:20:36 22° NE 22:20:36 22° NE 22:23:22 10° NNE visible
22 Apr 6.0 23:58:46 20° NW 23:58:46 20° NW 00:00:37 10° NW visible
23 Apr 4.8 22:52:58 38° NNE 22:52:58 38° NNE 22:56:04 10° N visible
24 Apr 6.7 00:31:07 10° WNW 00:31:07 10° WNW 00:31:07 10° WNW visible
24 Apr 5.9 21:47:09 11° ENE 21:47:09 11° ENE 21:48:30 10° NE visible
24 Apr 5.0 23:25:19 38° NNW 23:25:19 38° NNW 23:28:12 10° NNW visible
25 Apr 5.2 22:19:30 23° NE 22:19:30 23° NE 22:22:32 10° NNE visible
25 Apr 5.9 23:57:40 22° WNW 23:57:40 22° WNW 23:59:50 10° NW visible
26 Apr 4.6 22:51:52 41° NNE 22:51:52 41° NNE 22:55:14 10° N visible
27 Apr 6.6 00:30:01 11° WNW 00:30:01 11° WNW 00:30:24 10° WNW visible
27 Apr 5.9 21:46:03 11° ENE 21:46:14 11° ENE 21:47:34 10° NE visible
27 Apr 4.8 23:24:12 43° NNW 23:24:12 43° NNW 23:27:23 10° NNW visible
